Weather History for Limnos, Greece

Change the Weather History Date:

Thursday, October 4, 2012

  Actual Average Record
Temperature  
Mean Temperature 68 °F -  
Max Temperature 78 °F 67 °F 80 °F (1999)
Min Temperature 58 °F 53 °F 49 °F (2013)
Cooling Degree Days 3    
Growing Degree Days 18 (Base 50)    
Moisture  
Dew Point 63 °F    
Average Humidity 81    
Maximum Humidity 100    
Minimum Humidity 53    
Precipitation  
Precipitation 0.00 in 0.05 in - ()
Sea Level Pressure  
Sea Level Pressure 29.93 in    
Wind  
Wind Speed 4 mph ()    
Max Wind Speed 14 mph    
Max Gust Speed -    
Visibility 4.7 miles    
Events      
Averages and records for this station are not official NWS values.
T = Trace of Precipitation, MM = Missing Value Source: Averaged Metar Reports

Daily Weather History Graph

Daily Weather History Graph

Search for Another Location

Airport:

Trip Planner

Search our weather history database for the weather conditions in past years. The results will help you decide how hot, cold, wet, or windy it might be!

Date:

Astronomy

Oct. 04, 2012 Rise Set
Actual Time 7:18 AM EEST 6:56 PM EEST
Civil Twilight 6:51 AM EEST 7:23 PM EEST
Nautical Twilight 6:20 AM EEST 7:54 PM EEST
Astronomical Twilight 5:48 AM EEST 8:25 PM EEST
Moon 9:17 PM EEST (10/4) 11:18 AM EEST (10/4)
Length of Visible Light 12h 31m
Length of Day
11h 37m
Waning Gibbous, 84% of the Moon is Illuminated
Oct 4
Waning Gibbous
Oct 8
Last Quarter
Oct 15
New
Oct 22
First Quarter
Oct 29
Full

Hourly Weather History & Observations

Time (EEST) Temp. Dew Point Humidity Pressure Visibility Wind Dir Wind Speed Gust Speed Precip Events Conditions
12:20 AM 60.8 °F 59.0 °F 94% 29.92 in - Variable 3.5 mph - N/A   Unknown
12:50 AM 60.8 °F 59.0 °F 94% 29.92 in - Variable 1.2 mph - N/A   Unknown
1:20 AM 60.8 °F 59.0 °F 94% 29.92 in - Calm Calm - N/A   Unknown
1:50 AM 60.8 °F 59.0 °F 94% 29.92 in - Variable 2.3 mph - N/A   Unknown
2:20 AM 60.8 °F 59.0 °F 94% 29.92 in - Variable 1.2 mph - N/A   Unknown
3:00 AM 60 °F 58 °F 91% 29.93 in 3 mi Calm Calm - -   Mist
3:50 AM 59.0 °F 59.0 °F 100% 29.92 in - Calm Calm - N/A   Unknown
4:20 AM 60.8 °F 59.0 °F 94% 29.92 in - Variable 1.2 mph - N/A   Unknown
4:50 AM 60.8 °F 60.8 °F 100% 29.92 in - Variable 1.2 mph - N/A   Unknown
5:20 AM 60.8 °F 60.8 °F 100% 29.92 in 0.9 mi Calm Calm - N/A   Scattered Clouds
5:50 AM 60.8 °F 59.0 °F 94% 29.92 in 0.9 mi Variable 3.5 mph - N/A   Partly Cloudy
6:20 AM 60.8 °F 60.8 °F 100% 29.92 in 1.2 mi Variable 3.5 mph - N/A   Scattered Clouds
6:50 AM 62.6 °F 60.8 °F 94% 29.92 in 2.5 mi Calm Calm - N/A   Scattered Clouds
7:20 AM 64.4 °F 62.6 °F 94% 29.92 in 2.5 mi Calm Calm - N/A   Scattered Clouds
7:50 AM 64.4 °F 64.4 °F 100% 29.92 in 2.5 mi Variable 3.5 mph - N/A   Scattered Clouds
8:20 AM 68.0 °F 66.2 °F 94% 29.92 in 2.5 mi Variable 3.5 mph - N/A   Scattered Clouds
8:50 AM 71.6 °F 68.0 °F 88% 29.92 in 2.5 mi Variable 3.5 mph - N/A   Scattered Clouds
9:00 AM 71 °F 69 °F 90% 29.94 in 2 mi 3.5 mph - -   Mist
9:20 AM 71.6 °F 68.0 °F 88% 29.92 in 3.7 mi NE 6.9 mph - N/A   Mostly Cloudy
9:50 AM 73.4 °F 66.2 °F 78% 29.92 in 5.0 mi NE 5.8 mph - N/A   Mostly Cloudy
10:20 AM 75.2 °F 64.4 °F 69% 29.95 in 5.0 mi East 4.6 mph - N/A   Mostly Cloudy
10:50 AM 73.4 °F 64.4 °F 73% 29.95 in 5.0 mi ENE 4.6 mph - N/A   Mostly Cloudy
11:20 AM 75.2 °F 66.2 °F 73% 29.95 in 5.0 mi NNE 6.9 mph - N/A   Mostly Cloudy
11:50 AM 73.4 °F 66.2 °F 78% 29.95 in 5.0 mi NNE 10.4 mph - N/A   Mostly Cloudy
12:20 PM 75.2 °F 64.4 °F 69% 29.95 in 5.0 mi NE 11.5 mph - N/A   Mostly Cloudy
12:50 PM 75.2 °F 64.4 °F 69% 29.95 in 5.0 mi NE 11.5 mph - N/A   Mostly Cloudy
1:20 PM 77.0 °F 64.4 °F 65% 29.95 in 5.0 mi NE 9.2 mph - N/A   Mostly Cloudy
1:50 PM 77.0 °F 62.6 °F 61% 29.95 in 5.0 mi NNE 8.1 mph - N/A   Scattered Clouds
2:20 PM 77.0 °F 62.6 °F 61% 29.92 in 6.2 mi NNE 11.5 mph - N/A   Mostly Cloudy
2:50 PM 77.0 °F 62.6 °F 61% 29.92 in 6.2 mi NNE 13.8 mph - N/A   Mostly Cloudy
3:00 PM 77 °F 63 °F 53% 29.93 in 6 mi NNE 13.8 mph - -   Scattered Clouds
3:20 PM 77.0 °F 60.8 °F 57% 29.92 in 6.2 mi NE 13.8 mph - N/A   Scattered Clouds
3:50 PM 77.0 °F 62.6 °F 61% 29.92 in 6.2 mi NNE 11.5 mph - N/A   Scattered Clouds
4:20 PM 78.8 °F 60.8 °F 54% 29.89 in 6.2 mi North 10.4 mph - N/A   Partly Cloudy
4:50 PM 77.0 °F 60.8 °F 57% 29.89 in 6.2 mi North 10.4 mph - N/A   Partly Cloudy
5:20 PM 77.0 °F 60.8 °F 57% 29.92 in 6.2 mi North 10.4 mph - N/A   Partly Cloudy
5:50 PM 75.2 °F 62.6 °F 65% 29.92 in 6.2 mi NNW 8.1 mph - N/A   Partly Cloudy
6:20 PM 73.4 °F 62.6 °F 69% 29.92 in 6.2 mi North 6.9 mph - N/A   Partly Cloudy
6:50 PM 71.6 °F 64.4 °F 78% 29.92 in 6.2 mi North 5.8 mph - N/A   Partly Cloudy
7:20 PM 69.8 °F 64.4 °F 83% 29.92 in 6.2 mi North 4.6 mph - N/A   Partly Cloudy
7:50 PM 68.0 °F 62.6 °F 83% 29.92 in 6.2 mi NNW 4.6 mph - N/A   Partly Cloudy
8:20 PM 68.0 °F 64.4 °F 88% 29.92 in 6.2 mi North 4.6 mph - N/A   Partly Cloudy
8:50 PM 68.0 °F 64.4 °F 88% 29.92 in 6.2 mi North 4.6 mph - N/A   Partly Cloudy
9:00 PM 68 °F 64 °F 82% 29.94 in 6 mi North 4.6 mph - -   Scattered Clouds
9:20 PM 68.0 °F 64.4 °F 88% 29.92 in 6.2 mi North 4.6 mph - N/A   Partly Cloudy
9:50 PM 68.0 °F 64.4 °F 88% 29.92 in - NNE 4.6 mph - N/A   Clear
10:20 PM 68.0 °F 64.4 °F 88% 29.92 in - Variable 3.5 mph - N/A   Clear
10:50 PM 68.0 °F 62.6 °F 83% 29.92 in - Variable 3.5 mph - N/A   Clear
11:20 PM 66.2 °F 62.6 °F 88% 29.95 in - Variable 3.5 mph - N/A   Clear
11:50 PM 66.2 °F 62.6 °F 88% 29.95 in - Variable 3.5 mph - N/A   Clear